CST,Max TemperatureF,Mean TemperatureF,Min TemperatureF,Max Dew PointF,MeanDew PointF,Min DewpointF,Max Humidity, Mean Humidity, Min Humidity, Max Sea Level PressureIn, Mean Sea Level PressureIn, Min Sea Level PressureIn, Max VisibilityMiles, Mean VisibilityMiles, Min VisibilityMiles, Max Wind SpeedMPH, Mean Wind SpeedMPH, Max Gust SpeedMPH,PrecipitationIn, CloudCover, Events, WindDirDegrees
2013-1-1,28,19,10,28,17,9,100,85,68,30.30,30.23,30.12,10,8,3,0,0,,0.00,5,Rain,-1
2013-1-2,33,20,8,23,17,5,93,81,60,30.27,30.22,30.16,10,8,5,12,1,,0.00,0,,219
2013-1-3,37,27,17,30,25,18,100,86,75,30.41,30.36,30.25,10,7,2,6,1,,0.00,4,,252
2013-1-4,42,30,17,28,25,18,100,79,57,30.43,30.36,30.29,10,8,2,13,3,16,0.00,0,,206
2013-1-5,41,36,32,34,31,27,93,80,70,30.29,30.20,30.11,10,10,8,13,6,18,0.00,4,,210
2013-1-6,39,32,26,28,24,21,93,78,52,30.39,30.31,30.18,10,8,5,14,5,,0.00,0,,280
2013-1-7,51,40,28,30,25,21,80,63,40,30.33,30.21,30.09,10,10,8,14,7,20,0.00,0,,183
2013-1-8,55,44,33,37,31,27,81,63,38,30.20,30.09,30.03,10,10,9,13,6,17,0.00,2,,190
2013-1-9,55,44,32,43,35,30,100,81,47,30.42,30.35,30.21,10,6,0,8,2,,0.00,3,Fog,76
2013-1-10,55,48,41,55,46,32,100,93,57,30.34,29.99,29.77,10,6,1,15,9,21,0.00,6,Rain,122
2013-1-11,64,56,48,50,47,45,100,71,49,29.81,29.73,29.66,10,9,4,16,10,24,0.00,2,,191
2013-1-12,59,42,26,46,29,19,100,74,44,30.07,29.97,29.76,10,8,1,17,10,22,0.00,7,Rain-Snow,338
2013-1-13,26,19,12,19,14,10,92,73,55,30.37,30.21,30.03,10,9,5,13,2,,0.00,1,,303
2013-1-14,28,18,8,14,10,5,92,73,47,30.50,30.43,30.38,10,9,5,8,1,,0.00,0,,47
2013-1-15,32,21,10,19,14,5,93,76,51,30.40,30.30,30.19,10,9,7,9,1,,0.00,2,,30
2013-1-16,42,28,14,27,20,12,93,73,46,30.20,30.13,30.06,10,9,7,15,3,20,0.00,1,,218
2013-1-17,42,36,30,32,30,25,100,82,57,30.47,30.37,30.16,10,10,7,14,5,,0.00,1,,354
2013-1-18,55,44,32,32,29,27,87,62,36,30.46,30.28,30.10,10,10,9,20,8,31,0.00,0,,198
2013-1-19,60,51,41,37,34,30,70,56,39,30.24,30.09,30.02,10,10,9,20,11,26,0.00,0,,240
2013-1-20,39,32,24,30,20,14,81,59,41,30.37,30.30,30.24,10,10,9,14,8,18,0.00,0,,21
2013-1-21,28,22,17,14,10,5,80,59,43,30.44,30.39,30.36,10,10,9,13,7,16,0.00,4,,343
2013-1-22,32,26,19,18,9,5,74,52,40,30.42,30.34,30.27,10,10,9,8,4,,0.00,1,,65
2013-1-23,50,34,19,28,21,12,80,64,40,30.39,30.25,30.17,10,9,7,17,2,22,0.00,0,,336
2013-1-24,32,24,17,19,12,7,69,54,38,30.50,30.36,30.17,10,10,9,16,10,21,0.00,3,,70
2013-1-25,44,35,26,28,20,14,87,57,39,30.27,30.20,30.13,10,9,7,8,2,,0.00,2,,293
2013-1-26,57,42,28,30,28,23,93,63,33,30.31,30.23,30.14,10,8,5,9,2,,0.00,0,,110
2013-1-27,64,52,39,55,45,28,88,78,53,30.14,29.95,29.83,10,8,4,20,10,29,0.00,5,Rain,171
2013-1-28,75,65,55,61,58,54,100,76,53,29.89,29.83,29.74,10,9,5,21,8,30,0.00,5,,187
2013-1-29,69,54,39,61,54,39,100,94,73,29.74,29.59,29.46,10,6,1,17,10,25,0.00,7,Rain-Thunderstorm,149
2013-1-30,39,34,28,39,27,18,100,83,64,30.01,29.74,29.43,10,7,2,16,5,21,0.00,8,Rain-Snow,286
2013-1-31,32,22,12,27,15,3,86,68,47,30.48,30.18,29.96,10,9,4,0,0,,0.00,2,Rain,-1